Regional Weather Roundup
Issued by NWS

Home | Current Version | Previous Version | Graphics & Text | Print | Product List | Glossary On
Versions: 1 2 3 4 5 6 7 8 9 10 11 12 13 14 15 16 17 18 19 20 21 22 23 24 25 26 27 28 29 30 31 32 33 34 35 36 37 38 39 40 41 42 43 44 45 46 47 48 49 50
000
ASUS43 KFSD 192202
RWRSD

WEATHER ROUNDUP FOR SOUTH DAKOTA
NATIONAL WEATHER SERVICE SIOUX FALLS SD
400 PM CST FRI DEC 19 2014

NOTE: "FAIR" INDICATES FEW OR NO CLOUDS BELOW 12,000 FEET WITH NO
SIGNIFICANT WEATHER AND/OR OBSTRUCTIONS TO VISIBILITY.


SDZ001>005-009-010-012>017-192300-
NORTHWEST AND NORTH CENTRAL SOUTH DAKOTA

CITY           SKY/WX    TMP DP  RH WIND       PRES   REMARKS
BUFFALO          N/A     45  23  42 N3        29.84R
FAITH            N/A     41  28  60 SW6       29.92
MOBRIDGE       CLEAR     36  28  73 SE8       29.92R
$$

SDZ012>016-024>037-041>051-057-063-072>074-192300-
SOUTHWEST AND SOUTH CENTRAL SOUTH DAKOTA

CITY           SKY/WX    TMP DP  RH WIND       PRES   REMARKS
RAPID CTY ARPT CLOUDY    44  26  49 SE6       29.95R
PIERRE         CLOUDY    30  25  81 SE6       29.97R WCI  24
CUSTER         MOSUNNY   39  14  36 W9        29.92R
ELLSWORTH AFB  CLOUDY    43  27  52 SE6       29.94R
PHILIP         CLOUDY    45  26  47 NW3       29.95R
PINE RIDGE     SUNNY     42  23  46 W8        29.96R
WINNER         FAIR      35  25  66 E3        29.98R
$$

SDZ004>011-016>023-039-040-192300-
NORTHEAST SOUTH DAKOTA

CITY           SKY/WX    TMP DP  RH WIND       PRES   REMARKS
ABERDEEN       CLOUDY    31  27  85 S13       30.00R FOG     WCI  21
WATERTOWN      CLOUDY    28  27  96 S14       30.01S FOG     WCI  17
$$

SDZ017-020-022-023-036>040-048>070-192300-
SOUTHEAST SOUTH DAKOTA

CITY           SKY/WX    TMP DP  RH WIND       PRES   REMARKS
SIOUX FALLS    CLOUDY    30  27  88 S12       30.09R WCI  20
HURON          CLOUDY    30  28  92 S17       30.02S FOG     WCI  18
MITCHELL       CLOUDY    31  29  92 S16       30.05R FOG     WCI  20
YANKTON        CLOUDY    32  28  86 S10       30.10R WCI  24
$$

ABBREVIATIONS USED IN REMARKS
   TC - TEMPERATURE IN CELSIUS
  WCI - WIND CHILL INDEX
   HX - HEAT INDEX
  VSB - VISIBILITY




USA.gov is the U.S. government's official web portal to all federal, state and local government web resources and services.